[[{"header":{"parameterUnit":"m.s-1","parameterCategory":1,"la1":30.2992,"la2":30.254,"lo1":-89.0895,"lo2":-89.0443,"dy":0.0025,"dx":0.0025,"nx":19,"ny":19,"refTime":"2026-04-07T03:00:00:Z","depth":0,"parameterNumber":2,"parameterNumberName":"U-component_of_WINDS"},"data":[0,0,0,-5.1506,-5.1512,-5.1795,-5.1796,-5.2205,-5.2209,0,0,0,0,0,0,0,0,0,0,0,-5.1447,-5.145,-5.1505,-5.1513,-5.1795,-5.1796,-5.2205,-5.2209,0,0,0,0,0,0,0,0,0,0,0,-5.1445,-5.1449,-5.1454,-5.1514,-5.1795,-5.1796,-5.2204,-5.1975,0,0,0,0,0,0,0,0,0,0,-5.1692,-5.166,-5.1448,-5.1454,-5.1516,-5.1795,-5.1796,-5.1963,-5.1989,-5.2097,0,-5.2195,0,-5.2209,-5.2239,-5.2241,0,0,0,-5.1496,-5.1639,-5.1692,-5.1454,-5.1519,-5.1794,-5.1663,-5.1977,-5.2007,-5.2131,-5.22,-5.2214,-5.2215,-5.2242,-5.2245,-5.2915,-5.2918,0,0,-5.148,-5.1512,-5.1672,-5.1713,-5.1667,-5.1654,-5.1672,-5.1994,-5.2073,-5.2201,-5.2223,-5.2222,-5.2245,-5.2249,-5.2911,-5.2916,0,0,0,-5.1447,-5.1502,-5.1546,-5.1697,-5.1744,-5.1663,-5.1683,-5.2058,-5.207,-5.2227,-5.2227,-5.2248,-5.2253,-5.2906,-5.2913,-5.314,0,0,0,-5.1437,-5.1482,-5.154,-5.1563,-5.1739,-5.1904,-5.1741,-5.2048,-5.2083,-5.2225,-5.2248,-5.2258,-5.2902,-5.291,-5.3124,-5.3244,0,0,0,-5.142,-5.148,-5.1528,-5.1564,-5.1686,-5.1898,-5.1927,-5.2054,-5.2084,-5.2241,-5.2259,-5.2899,-5.2908,-5.311,-5.3221,-5.3433,0,0,0,-5.1412,-5.1726,-5.1533,-5.1883,-5.1684,-5.2033,-5.1925,-5.2185,-5.2346,-5.225,-5.2903,-5.2912,-5.3105,-5.3206,-5.3418,-5.3621,-5.3706,0,0,-5.1826,-5.1777,-5.198,-5.1816,-5.2208,-5.1988,-5.2415,-5.2534,-5.2522,-5.2786,-5.2802,-5.3129,-5.3219,-5.343,-5.4167,-5.4235,0,0,0,-5.2123,-5.227,-5.2367,-5.2521,-5.2617,-5.2712,-5.2762,-5.2807,-5.3028,-5.2662,-5.3259,-5.3312,-5.3435,-5.353,-5.3589,-5.3695,-5.2956,-5.2955,-5.2954,-5.2757,-5.2722,-5.3058,-5.3059,-5.3209,-5.3258,-5.3379,-5.3448,-5.3369,-5.3511,-5.3591,-5.4042,-5.4155,-5.4198,-5.4309,-5.369,-5.3691,-5.3692,-5.3692,-5.3365,-5.3571,-5.3457,-5.3743,-5.3706,-5.3948,-5.4008,-5.3944,-5.4168,-5.3978,-5.4084,-5.3885,-5.4274,-5.437,-5.3709,-5.3706,-5.3704,-5.3703,-5.3701,-5.3781,-5.3874,-5.392,-5.4141,-5.4316,-5.4304,-5.4524,-5.4481,-5.4443,-5.4548,-5.4632,-5.4628,-5.4624,-5.4589,-5.4591,-5.4593,-5.4594,-5.4595,-5.4596,-5.4197,-5.4241,-5.443,-5.456,-5.4654,-5.4774,-5.4826,-5.492,-5.5014,-5.4966,-5.4967,-5.4879,-5.4316,-5.4179,-5.462,-5.4616,-5.4613,-5.4611,-5.4609,-5.4836,-5.4684,-5.4976,-5.5071,-5.5222,-5.5402,-5.5342,-5.5538,-5.5609,-5.572,-5.5608,-5.5196,-5.5145,-5.5098,-5.4985,-5.5609,-5.5609,-5.5609,-5.561,-5.5192,-5.5159,-5.545,-5.5605,-5.5752,-5.5729,-5.6067,-5.6112,-5.6136,-5.6179,-5.6081,-5.5925,-5.5879,-5.5855,-5.5793,-5.5687,-5.6475,-5.6476,-5.6477,-5.5586,-5.5566,-5.586,-5.5876,-5.5991,-5.6093,-5.6411,-5.6599,-5.6593,-5.6511,-5.6214,-5.6177,-5.5925,-5.5843,-5.576,-5.5663,-5.5468,0,0]},{"header":{"parameterUnit":"m.s-1","parameterCategory":1,"la1":30.2992,"la2":30.254,"lo1":-89.0895,"lo2":-89.0443,"dy":0.0025,"dx":0.0025,"nx":19,"ny":19,"refTime":"2026-04-07T03:00:00:Z","depth":0,"parameterNumber":3,"parameterNumberName":"V-component_of_WINDS"},"data":[0,0,0,-2.4166,-2.4167,-2.4204,-2.4204,-2.4255,-2.4255,0,0,0,0,0,0,0,0,0,0,0,-2.416,-2.416,-2.4166,-2.4167,-2.4204,-2.4204,-2.4255,-2.4255,0,0,0,0,0,0,0,0,0,0,0,-2.416,-2.416,-2.4161,-2.4167,-2.4204,-2.4204,-2.4255,-2.4225,0,0,0,0,0,0,0,0,0,0,-2.4189,-2.4188,-2.416,-2.4161,-2.4168,-2.4204,-2.4204,-2.4224,-2.4227,-2.4241,0,-2.4256,0,-2.4256,-2.4259,-2.426,0,0,0,-2.4164,-2.4185,-2.4191,-2.4161,-2.4168,-2.4204,-2.4186,-2.4226,-2.4229,-2.4245,-2.4256,-2.4258,-2.4257,-2.426,-2.426,-2.4353,-2.4353,0,0,-2.4162,-2.4169,-2.4188,-2.4194,-2.419,-2.4185,-2.4187,-2.4228,-2.424,-2.4256,-2.4259,-2.4258,-2.426,-2.4261,-2.4352,-2.4353,0,0,0,-2.4158,-2.4167,-2.4172,-2.4192,-2.4198,-2.4186,-2.4189,-2.4238,-2.4239,-2.426,-2.4259,-2.426,-2.4261,-2.4352,-2.4352,-2.4388,0,0,0,-2.4157,-2.4165,-2.4171,-2.4176,-2.4197,-2.4219,-2.4198,-2.4236,-2.424,-2.4258,-2.426,-2.4262,-2.4351,-2.4352,-2.4385,-2.4403,0,0,0,-2.4156,-2.4165,-2.4172,-2.4176,-2.4192,-2.4218,-2.4221,-2.4237,-2.424,-2.426,-2.4262,-2.435,-2.4352,-2.4383,-2.44,-2.4428,0,0,0,-2.4157,-2.4203,-2.4173,-2.4224,-2.4192,-2.424,-2.4221,-2.4256,-2.4277,-2.4261,-2.4351,-2.4352,-2.4383,-2.4397,-2.4426,-2.4453,-2.4465,0,0,-2.4219,-2.4211,-2.4241,-2.4214,-2.427,-2.4234,-2.4294,-2.4307,-2.4302,-2.4336,-2.4338,-2.4386,-2.4399,-2.4428,-2.4533,-2.4543,0,0,0,-2.4263,-2.4284,-2.4298,-2.4318,-2.4329,-2.4339,-2.4342,-2.4347,-2.4375,-2.4321,-2.4405,-2.4412,-2.4429,-2.4441,-2.4449,-2.4462,-2.4359,-2.4359,-2.4358,-2.4361,-2.4353,-2.4401,-2.4396,-2.4416,-2.4418,-2.4433,-2.4439,-2.4425,-2.4445,-2.4455,-2.452,-2.4535,-2.4541,-2.4554,-2.4469,-2.4469,-2.4469,-2.4469,-2.4451,-2.4479,-2.4459,-2.4498,-2.4488,-2.4521,-2.4524,-2.4512,-2.454,-2.4512,-2.4526,-2.4495,-2.4552,-2.4563,-2.4472,-2.4472,-2.4471,-2.4471,-2.4471,-2.4514,-2.4525,-2.453,-2.4557,-2.4579,-2.4573,-2.46,-2.459,-2.4582,-2.4596,-2.4603,-2.4603,-2.46,-2.46,-2.46,-2.4601,-2.4601,-2.4601,-2.4601,-2.4576,-2.458,-2.4605,-2.4619,-2.463,-2.4643,-2.4644,-2.4654,-2.4663,-2.4653,-2.4653,-2.4636,-2.4559,-2.4539,-2.4605,-2.4604,-2.4604,-2.4603,-2.4603,-2.4669,-2.4646,-2.4684,-2.4695,-2.4709,-2.4731,-2.4718,-2.4739,-2.4746,-2.4759,-2.4739,-2.4684,-2.4675,-2.4668,-2.4652,-2.4742,-2.4742,-2.4742,-2.4742,-2.472,-2.4715,-2.475,-2.4768,-2.4784,-2.4776,-2.4817,-2.4817,-2.4815,-2.4818,-2.4804,-2.4781,-2.4775,-2.4769,-2.476,-2.4744,-2.4856,-2.4857,-2.4857,-2.4776,-2.4771,-2.4809,-2.4806,-2.4816,-2.4825,-2.4863,-2.4883,-2.4875,-2.4861,-2.482,-2.4815,-2.4778,-2.4767,-2.4752,-2.4739,-2.4709,0,0]}]]